Date,TemperatureHighF,TemperatureAvgF,TemperatureLowF,DewpointHighF,DewpointAvgF,DewpointLowF,HumidityHigh,HumidityAvg,HumidityLow,PressureMaxIn,PressureMinIn,WindSpeedMaxMPH,WindSpeedAvgMPH,GustSpeedMaxMPH,PrecipitationSumIn
2013-4-1,57.4,43.4,30.2,32.5,24.9,16.2,85,53,22,30.07,29.84,3,1,6,0.00
2013-4-2,50.8,35.3,23.3,25.3,21.4,17.1,84,60,27,30.08,29.89,3,0,7,0.00
2013-4-3,57.1,37.3,21.7,28.3,20.9,11.8,88,57,18,30.24,30.08,3,0,6,0.00
2013-4-4,61.1,41.6,22.8,28.1,21.3,16.5,81,50,23,30.32,30.12,3,0,7,0.00
2013-4-5,57.6,42.4,28.8,28.6,24.6,21.2,81,54,25,30.18,29.88,3,0,7,0.00
2013-4-6,62.7,45.2,28.8,29.6,23.9,17.1,87,50,19,29.99,29.83,2,0,10,0.00
2013-4-7,58.3,42.5,27.8,27.8,22.8,17.2,84,51,22,29.88,29.75,4,1,12,0.00
2013-4-8,54.2,39.2,28.3,31.3,25.4,19.0,90,61,26,29.78,29.30,4,1,12,0.00
2013-4-9,36.6,31.6,30.0,33.5,29.6,28.2,94,92,86,29.88,29.41,1,0,3,0.05
2013-4-10,30.7,27.4,19.0,28.3,24.4,16.0,93,88,80,30.13,29.88,2,0,4,0.00
2013-4-11,44.0,28.6,11.4,36.2,23.3,8.0,92,81,56,30.22,30.02,1,0,4,0.69
2013-4-12,49.9,34.4,18.7,31.5,23.7,16.0,100,69,36,30.13,29.96,2,0,5,0.00
2013-4-13,57.2,42.8,22.4,28.1,22.6,18.8,88,51,24,30.07,29.59,4,1,11,0.00
2013-4-14,54.5,44.8,37.6,33.6,27.1,20.0,83,52,29,29.60,29.47,3,1,8,0.01
2013-4-15,55.8,46.1,37.3,31.5,27.1,20.2,75,50,26,29.66,29.53,3,1,9,0.00
2013-4-16,59.8,46.2,30.5,29.7,23.4,16.0,85,45,20,29.72,29.51,5,1,20,0.00
2013-4-17,44.4,36.3,25.9,26.4,16.5,0.8,71,45,21,29.89,29.56,3,1,9,0.00
2013-4-18,37.2,27.6,16.1,6.5,1.5,-5.2,60,34,19,30.42,29.90,3,1,9,0.00
2013-4-19,50.1,31.6,13.0,20.4,10.7,2.5,73,45,24,30.50,30.17,4,1,10,0.00
2013-4-20,48.8,37.4,24.7,30.6,23.4,18.7,80,58,39,30.17,29.95,3,0,6,0.00
2013-4-21,58.5,39.7,21.0,25.3,20.5,13.8,85,52,19,30.25,30.03,3,1,12,0.00
2013-4-22,64.8,48.2,34.1,31.5,24.8,17.3,73,45,19,30.08,29.68,3,1,16,0.00
2013-4-23,54.3,39.0,26.6,26.6,14.0,-2.5,80,43,12,30.13,29.68,4,1,13,0.00
2013-4-24,57.2,38.6,21.9,22.0,13.2,3.6,64,39,17,30.23,30.11,4,1,9,0.00
2013-4-25,61.3,44.3,29.0,32.6,24.6,18.8,77,50,23,30.20,29.88,4,1,10,0.00
2013-4-26,58.0,36.1,28.1,32.2,27.7,24.6,87,74,30,30.13,30.01,2,0,4,0.00